Regional Weather Roundup
Issued by NWS Charleston, SC

Current Version | Previous Version | Text Only | Print | Product List | Glossary Off
Versions: 1 2 3 4 5 6 7 8 9 10 11 12 13 14 15 16 17 18 19 20 21 22 23 24 25 26 27 28 29 30 31 32 33 34 35 36 37 38 39 40 41 42 43 44 45 46 47 48 49 50

969
ASUS42 KCHS 200212
RWRCHS

Regional Weather Roundup
National Weather Service Charleston SC
900 PM EST MON FEB 19 2018

NOTE: "fair" indicates few or no clouds below 12,000 feet with no
significant weather and/or obstructions to visibility.

Not all stations are quality controlled. Use data with caution,
especially dewpoint observations.

SCZ027-030-031-034>040-042>050-200300-
...Southeast South Carolina...

CITY           SKY/WX    TMP DP  RH WIND       PRES   REMARKS
N Charleston   FAIR      65  63  93 E3        30.38R
Waterfront Prk NOT AVBL
Mount Pleasant FOG       63  63 100 CALM      30.39R VSB 1
Johns Island   CLOUDY    63  63 100 CALM      30.38S FOG
Pinopolis        N/A     66  66 100 VRB2      30.29R
Moncks Corner  FAIR      64  63  94 CALM      30.38R
Summerville    FAIR      66  64  94 CALM      30.38R
Beaufort MCAS  FAIR      65  65 100 CALM      30.37R
Beaufort Arpt  FAIR      63  63 100 E3        30.37R
Hilton Head Is MOCLDY    63  63 100 CALM      30.37S FOG
Walterboro     FAIR      64  63  94 SE5       30.38R
Allendale      FAIR      68  64  88 SE7       30.34S

...Southern Midlands and Pee Dee...

CITY           SKY/WX    TMP DP  RH WIND       PRES   REMARKS
Georgetown     FOG       55  55 100 CALM      30.40S VSB 1/4
Kingstree      CLOUDY    59  57  94 E3        30.38S
Orangeburg     FAIR      64  59  83 E3        30.36R
Barnwell         N/A     68  66  94 SE7       30.35R
Aiken          FAIR      64  61  88 E6        30.38R
Manning        FAIR      61  52  72 MISG      30.38R
Columbia       FAIR      67  61  81 E6        30.35R
Sumter         FAIR      60  56  86 E5        30.35R
Florence       FAIR      58  56  93 N5        30.39S
Myrtle Beach   MOCLDY    60  60 100 SE5       30.41S
N Myrtle Beach CLOUDY    62  62 100 SE6       30.40R

$$

GAZ063-065-086>088-099>101-113>116-118-119-134>141-150-200300-
...Southeast Georgia...

CITY           SKY/WX    TMP DP  RH WIND       PRES   REMARKS
Savannah Arpt  FAIR      64  62  93 E5        30.36R
Hunter AAF     FAIR      65  62  90 E5        30.34R
Fort Stewart   FAIR      65  64  94 E7        30.33R
Statesboro     FAIR      69  60  73 SE3       30.35R
Sylvania       FAIR      67  63  87 CALM      30.36R
Claxton        FAIR      68  65  88 CALM      30.34S

...CSRA, Central and far Southeast Georgia...

CITY           SKY/WX    TMP DP  RH WIND       PRES   REMARKS
Thomson        MOCLDY    60  58  93 CALM      30.38R
Augusta-Bush   FAIR      62  60  93 CALM      30.32R
Augusta-Daniel FAIR      69  61  75 E5        30.33S
Swainsboro     FAIR      70  63  78 SE9       30.33S
Vidalia        FAIR      68  63  83 SE3       30.33R
Eastman        FAIR      67  54  63 CALM      30.33R
Hazlehurst     FAIR      71  58  62 SE7       30.31R
Alma           FAIR      70  62  76 E7        30.32R
Waycross       FAIR      69  64  83 SE6       30.33R
Jesup          FAIR      66  63  88 CALM      30.34S
Baxley         FAIR      68  64  88 SE5       30.33R
Brunswick      MOCLDY    61  59  94 E3        30.35S
Saint Simons   FAIR      66  65  96 SE6       30.34S

$$

SCZ027-028-034-036>038-045-046-048>050-GAZ119-141-200300-
...Lake and Supplemental Coastal Observations...

STATION/POSITION TIME  TEMP    WIND        PRES    WAVE   SWELL
                       AIR SEA DIR/SP/G            HT/PER HT/PER/DIR
                 (UTC) (F)     (DEG/KT/KT) (MB)    (FT/S) (FT/S/D)
Winyah Bay       0045   59      60/  2     1029.0
Lake Murray      0120   66      80/  2/  5 1026.8
ACE Basin NERRS  0045   65        CALM     1028.0
Fort Pulaski     0142   61 59   90/  5/  5 1028.3R
Sapelo Island    0100   65     100/  5     1027.0

$$

ANZ835-935-AMZ111-154-330-350-352-354-370-450-454-472-200300-
...C-MAN and Buoy Observations...

STATION/POSITION TIME  TEMP    WIND        PRES    WAVE   SWELL
                       AIR SEA DIR/SP/G            HT/PER HT/PER/DIR
                 (UTC) (F)     (DEG/KT/KT) (MB)    (FT/S) (FT/S/D)
Buoy 41004       0150   70 68  140/  6/  6 1028.5R   3/ 8   3/ 90/ 8
Buoy 41008       0150   62 58  130/  6/  8 1027.3R   3/ 9   3/ 90/ 9
Folly Beach CMAN 0100   60      50/  5/  6 1028.9R
Capers Nearshore 0108   55 58  100/  6/  8 1028.1R
Fripp Nearshore  0108   58 59  100/  6/  8 1026.9R


STATION/POSITION TIME  TEMP    WIND        PRES    WAVE   SWELL
                       AIR SEA DIR/SP/G            HT/PER HT/PER/DIR
                 (UTC) (F)     (DEG/KT/KT) (MB)    (FT/S) (FT/S/D)
5E St. Marys GA  0200      62                N/A     3/ 7
Frying Pan Buoy  0150   71 68  140/ 10/ 12 1029.4R   4/ 6   3/100/ 6
Buoy 41025       0150   71 73  160/ 16/ 19 1031.1R   4/ 9   2/ 50/ 9
Cape Lookout NC  0100          170/  5/  5 1030.4R
Buoy 41002       0150   71 72  110/ 14/ 16 1030.7R   4/ 9   3/ 60/ 9
Buoy 41010       NOT AVBL
St Augustine FL  0200   67 62  120/  9/ 10 1026.9R


$$




USA.gov is the U.S. government's official web portal to all federal, state and local government web resources and services.